Simultaneous Nadir Overpasses (SNOs) Predictions

Prediction of SNOs between GOES-16 and TERRA Satellite Orbit:

Table of predicted SNOs for the next 14.0 days since TLE Epoch: 10/29/2022
Index Date Time (GOES-16) GOES-16 Lat,Lon TERRA Lat,Lon Distance(km) Time Diff (sec)
1 10/31/2022 03:09:55 0.06, -75.19 0.21, -74.37 93.46 80
2 10/31/2022 15:32:57 -0.05, -75.20 0.80, -79.32 467.44 80
3 11/02/2022 15:17:18 -0.05, -75.21 0.03, -75.53 36.30 80
4 11/04/2022 14:58:59 -0.05, -75.23 -0.76, -71.74 395.89 80
5 11/05/2022 03:22:10 0.05, -75.23 -0.30, -76.73 170.87 80
6 11/07/2022 03:03:51 0.05, -75.26 0.51, -72.94 262.39 80
7 11/07/2022 15:26:52 -0.04, -75.27 0.50, -77.89 297.84 80
8 11/09/2022 15:08:33 -0.04, -75.30 -0.32, -74.11 136.11 80
9 11/10/2022 03:31:43 0.04, -75.31 -0.78, -79.08 430.12 80
10 11/12/2022 03:13:24 0.03, -75.34 0.07, -75.31 5.30 80
